sat.trackr.live / text

‹ back to catalog

STARLINK-11671 [DTC]

NORAD 64319 · 2025-124C

PAYLOAD ACTIVE UNKNOWN

§ Identity

Operator
Country
US
Launch date
2025-06-10
Launch site
AFETR
Launch vehicle
Mass (kg)
RCS (m²)

Purposes: comms

External: N2YO · Heavens-Above · Gunter

§ Orbital elements

Epoch: 2026-09-19T19:02:32.529120Z

Period
91.67 min
Inclination
42.9998°
Eccentricity
0.0001191
Mean motion
15.70928565 rev/d
Perigee alt
355.4 km
Apogee alt
357.0 km
Semi-major
6,734.4 km
B*
1.4234e-3
RAAN
299.0649°
Arg perigee
304.3774°
Mean anomaly
55.6981°
Rev number
7,336

§ Raw data

STARLINK-11671 [DTC]1 64319U 25124C   26262.79343205  .00187056  00000+0  14234-2 0  99902 64319  42.9998 299.0649 0001191 304.3774  55.6981 15.70928565 73366

JSON: /api/v1/satellites/64319 · /tle

For live sub-satellite position, see the globe view (requires WebGL).

§ Visibility from observer

Set your observer location to see the next 7 days of passes ≥ 10°. The values pass through the URL so the page stays shareable.

No JS? Fill the form by hand. The geolocation button needs JavaScript.